sat.trackr.live / text

‹ back to catalog

2023-081A

NORAD 56846 · 2023-081A

PAYLOAD ACTIVE UNKNOWN

§ Identity

Operator
Country
PRC
Launch date
2023-06-07
Launch site
JSC
Launch vehicle
Mass (kg)
RCS (m²)

External: N2YO · Heavens-Above · Gunter

§ Orbital elements

Epoch: 2026-05-25T04:33:56.577024Z

Period
94.56 min
Inclination
97.3708°
Eccentricity
0.0001143
Mean motion
15.22880322 rev/d
Perigee alt
496.4 km
Apogee alt
497.9 km
Semi-major
6,875.3 km
B*
4.0163e-4
RAAN
215.7057°
Arg perigee
90.5993°
Mean anomaly
269.5374°
Rev number
16,451

§ Raw data

2023-081A1 56846U 23081A   26145.19023816  .00009346  00000+0  40163-3 0  99992 56846  97.3708 215.7057 0001143  90.5993 269.5374 15.22880322164512

JSON: /api/v1/satellites/56846 · /tle

For live sub-satellite position, see the globe view (requires WebGL).

§ Visibility from observer

Set your observer location to see the next 7 days of passes ≥ 10°. The values pass through the URL so the page stays shareable.

No JS? Fill the form by hand. The geolocation button needs JavaScript.